Regional Weather Roundup
Issued by NWS Grand Forks, ND

Home | Current Version | Previous Version | Text Only | Print | Product List | Glossary Off
Versions: 1 2 3 4 5 6 7 8 9 10 11 12 13 14 15 16 17 18 19 20 21 22 23 24 25 26 27 28 29 30 31 32 33 34 35 36 37 38 39 40 41 42 43 44 45 46 47 48 49 50

000
ASUS43 KFGF 240110
RWRFGF
PRAIRIE TO PINES  WEATHER ROUNDUP
NATIONAL WEATHER SERVICE EASTERN NORTH DAKOTA/GRAND FORKS ND
800 PM CDT THU OCT 23 2014

 **SATELLITE DATA USED TO AUGMENT SKY COVER AT AUTOMATED STATIONS**
 *****  WEATHER ACROSS EASTERN NORTH DAKOTA  *****

CITY           SKY/WX    TMP DP  RH WIND       PRES   REMARKS
GRAND FORKS    MOCLDY    47  37  68 S6        29.78S
GRAND FRKS AFB MOCLDY    50  39  65 S8        29.78F
GRAND FRKS NWS   N/A     50 N/A N/A SW7         N/A
DEVILS LAKE    MOCLDY    54  39  58 S5        29.76S
FARGO          PTCLDY    59  39  47 S13       29.83R
WAHPETON ARPT  PTCLDY    52  32  46 S9        29.87S
$$

 ***** WEATHER ACROSS CENTRAL AND WESTERN NORTH DAKOTA  *****

CITY           SKY/WX    TMP DP  RH WIND       PRES   REMARKS
BISMARCK       CLOUDY    60  30  32 SW6       29.81S
MINOT          PTCLDY    56  34  43 SW7       29.74R
JAMESTOWN      CLOUDY    55  37  50 S8        29.81S
MINOT AFB      PTCLDY    52  35  54 SW8       29.74R
GARRISON         N/A     50  35  56 W9        29.78R
WILLISTON      PTCLDY    54  35  48 CALM      29.78R
DICKINSON      MOCLDY    49  33  54 W7        29.82R
HETTINGER      CLOUDY    53  27  36 S3        29.87S
$$

 *****  OTHER AIRPORT OBSERVATIONS IN OUR AREA  *****

CITY           SKY/WX    TMP DP  RH WIND       PRES   REMARKS
WALHALLA         N/A     55  36  47 S6        29.75F
GRAFTON AIRPOR FAIR      48  39  71 S6        29.77F
VALLEY CITY AR FAIR      50  37  62 SW10      29.82F
CANDO          FAIR      54  34  47 S7        29.76S
CAVALIER APRT  FAIR      52  39  62 S5        29.76F
GWINNER        CLEAR     54  43  66 S9        29.87S
ROLLA          FAIR      50  32  50 SW9       29.76S
 ***** THE ABOVE OBSERVATIONS ARE NON NWS ARE NOT QUALITY
       CONTROLLED AND MAY MIS-REPORT RAIN FOR SNOW...
$$

  *****  WEATHER ACROSS NORTHERN MINNESOTA  *****

CITY           SKY/WX    TMP DP  RH WIND       PRES   REMARKS
FLAG ISLAND    PTCLDY    54  43  66 SW5       29.79S
WARROAD        CLEAR     52  43  71 S5        29.81S
ROSEAU         CLEAR     50  41  71 S5        29.80F
HALLOCK        MOCLDY    50  37  62 S7        29.77F
THF RVR FALLS  CLEAR     55  39  54 SE7       29.81F
BAUDETTE       PTCLDY    51  37  58 S5        29.82S
WASKISH        CLEAR     43  39  87 CALM      29.85S
CROOKSTON      PTCLDY    54  41  62 S9        29.81S
STEPHEN NDAWN    N/A     54  41  62 SE6         N/A
GREENBUSH NDAW   N/A     50  43  76 SE5         N/A
$$
  *****  WEATHER ACROSS CENTRAL AND WEST MINNESOTA  *****

CITY           SKY/WX    TMP DP  RH WIND       PRES   REMARKS
FOSSTON        CLEAR     54  39  58 SE9       29.85S
BEMIDJI        CLEAR     55  34  45 S6        29.87R
PARK RAPIDS    CLEAR     51  37  58 S8        29.88S
ELBOW LAKE     FAIR      51  41  68 S8        29.91R
WADENA         CLEAR     52  43  71 S7        29.90S
DETROIT LAKES  CLEAR     55  39  54 S6        29.89R
MOORHEAD       CLEAR     61  30  31 S9        29.85S
FERGUS FALLS   CLEAR     52  36  54 S8        29.90R
MORRIS MN      NOT AVBL
STAPLES        CLEAR     52  37  58 S6        29.91S
$$
  *****  WEATHER ELSEWHERE ACROSS MINNESOTA  *****

CITY           SKY/WX    TMP DP  RH WIND       PRES   REMARKS
DULUTH         PTCLDY    51  47  86 S7        29.94S
INTRNTL FALLS  CLEAR     44  35  70 CALM      29.84S
ELY            CLEAR     48  45  87 S6        29.92R
CLOQUET        PTCLDY    52  46  82 S3        29.94S
WHEATON        CLEAR     54  43  66 S9        29.91S
BRAINERD       CLEAR     50  37  61 CALM      29.92S
HIBBING        FAIR      47  44  90 SE5       29.90S
ALEXANDRIA     CLEAR     55  42  61 S9        29.94R
SAINT CLOUD    CLEAR     52  41  66 SE6       29.94S
MINNEAPOLIS    CLEAR     57  51  80 SE9       29.98R
$$

  *****  WEATHER ACROSS SOUTH DAKOTA  *****

CITY           SKY/WX    TMP DP  RH WIND       PRES   REMARKS
SIOUX FALLS    PTCLDY    58  46  64 S8        29.95S
BROOKINGS      NOT AVBL
WATERTOWN      CLEAR     55  44  66 S6        29.91F
HURON          MOCLDY    55  43  63 SE6       29.89S
SISSETON         N/A     53  40  61 SW9       29.88S
ABERDEEN       MOCLDY    52  42  69 S7        29.88R
MITCHELL       MOCLDY    58  44  60 S10       29.90S
PIERRE         MOCLDY    49  36  61 NE6       29.85S
MOBRIDGE       CLOUDY    56  40  55 CALM      29.85R
RAPID CITY     MOCLDY    47  36  65 N7        29.92R
$$

  *****  SOME WEATHER IN NEARBY STATES *****

CITY           SKY/WX    TMP DP  RH WIND       PRES   REMARKS
GLASGOW MT     MOCLDY    56  38  50 W7        29.78R
GREAT FALLS MT CLOUDY    57  35  43 SW17      29.78F
CHEYENNE WY    MOCLDY    56  33  42 SW10      30.13S
SCOTTSBLUFF NE PTCLDY    58  34  40 SW3       30.00R
OMAHA NE       PTCLDY    60  50  69 SE3       30.02R
DES MOINES IA  PTCLDY    60  55  83 S8        30.03R
DAVENPORT IA   CLOUDY    57  47  69 S5        30.05S
CHICAGO IL     CLOUDY    55  42  61 S5        30.07R
EAU CLAIRE WI  CLOUDY    52  50  93 S5        30.02R
LA CROSSE WI   NOT AVBL
$$

  *****  SOME NATIONAL WEATHER *****

CITY           SKY/WX    TMP DP  RH WIND       PRES   REMARKS
LA GUARDIA NY  CLOUDY    53  48  83 NW13      29.76R
RALEIGH NC     PTCLDY    59  42  53 NW5       29.99R
ATLANTA GA     MOCLDY    58  45  62 NW6       30.06S
NEW ORLEANS LA CLOUDY    67  50  54 NW3       30.06R
OKLAHOMA CITY  PTCLDY    68  59  73 S5        30.07R
ALBUQUERQUE NM PTCLDY    72  34  24 CALM      30.21R
SALT LAKE CITY CLOUDY    58  40  51 CALM      30.06S
LOS ANGELES CA CLEAR     72  63  73 W8        29.91S
BOISE ID       LGT RAIN  58  47  66 SE7       30.03R
SEATTLE WA     MOCLDY    50  46  86 S8        29.92S
$$

*** WEATHER ACROSS MANITOBA...SASKATCHEWAN AND ONTARIO ***
                ***ONTARIO***

CITY           SKY/WX    TMP DP  RH WIND       PRES   REMARKS
GERALDTON      LGT RAIN  43  43 100 S3        29.93F FOG
THUNDER BAY    CLOUDY    48  46  93 S6        29.93S
SIOUX LOOKOUT  MOCLDY    50  48  93 S3        29.83S
TORONTO        CLEAR     48  41  76 NW14G21   30.06F
BIG TROUT LK   CLOUDY    50  43  76 S9        29.74F
PICKLE LAKE    CLOUDY    50  45  81 S12       29.82F
DRYDEN         CLOUDY    54  48  82 S8        29.80F
KENORA         NOT AVBL
$$
                *** MANITOBA***

CITY           SKY/WX    TMP DP  RH WIND       PRES   REMARKS
BRANDON        MOCLDY    55  39  54 SW6       29.72R
DAUPHIN        MOCLDY    50  46  87 E5        29.66F
ISLAND LAKE    LGT RAIN  50  48  93 S3        29.67
PILOT MOUND      N/A     48  34  57 S9          N/A
THE PAS        DRZL/FOG  43  41  93 E6        29.64  VSB 1
THOMPSON       FOG       37  37 100 NE3       29.66  VSB 1
WINNIPEG       NOT AVBL
LYNN LAKE      CLOUDY    36  36 100 E12       29.65F
CHURCHILL      LGT RAIN  37  36  93 E23G33    29.85F
GILLAM         DRZL/FOG  41  39  93 NE9       29.64F VSB 1/2
$$
                ***SASKATCHEWAN***

CITY           SKY/WX    TMP DP  RH WIND       PRES   REMARKS
ESTEVAN        MOCLDY    54  37  54 SW12      29.73S
KINDERSLEY     MOCLDY    57  39  51 S6        29.59R
LLOYDMINSTER   PTCLDY    48  28  46 W9        29.50R
PRINCE ALBERT  NOT AVBL
REGINA         NOT AVBL
YORKTON        PTCLDY    54  41  62 S5        29.64S
N. BATTLEFORD  CLEAR     52  36  54 SW8       29.51R
LA RONGE       CLOUDY    46  43  87 SE13G20   29.53F
SASKATOON      PTCLDY    52  39  62 SW12      29.55S
SWIFT CURRENT  PTCLDY    50  39  66 SW16      29.66R
$$
NOTE: THESE ARE AUTOMATED STATIONS WITH LIMITED QUALITY CONTROL
      "FAIR" INDICATES FEW OR NO CLOUDS BELOW 12,000 FEET WITH NO
      SIGNIFICANT WEATHER AND/OR OBSTRUCTIONS TO VISIBILITY.
      SKY/WX - SKY CONDITION AND SIGNIFICANT WEATHER.
      TMP - AIR TEMPERATURE.    DP   - DEWPOINT TEMPERATURE.
      RH  - RELATIVE HUMIDITY.  PRES - PRESSURE.
      HX  - HEAT INDEX.         WCI  - WIND CHILL INDEX.
$



USA.gov is the U.S. government's official web portal to all federal, state and local government web resources and services.